Cheraw, CO

11:03 PM MDT on September 24, 2016 (GMT -0600)
La Junta Municipal

Weather History for KLHX - August, 2014

Change the Weather History Date:

Sunday, August 31, 2014

  Actual Average Record
Temperature  
Mean Temperature 79 °F 73 °F  
Max Temperature 100 °F 89 °F 104 °F (1985)
Min Temperature 58 °F 58 °F 43 °F (1993)
Degree Days  
Heating Degree Days 0 0  
Month to date heating degree days 0 0  
Since 1 June heating degree days 5 20  
Since 1 July heating degree days 0 4  
Cooling Degree Days 14 9  
Month to date cooling degree days 344 347  
Year to date cooling degree days 1183 1078  
Since 1 June cooling degree days 1061 1005  
Growing Degree Days 28 (Base 50)    
Moisture  
Dew Point 48 °F    
Average Humidity 45    
Maximum Humidity 80    
Minimum Humidity 10    
Precipitation  
Precipitation 0.00 in 0.04 in 0.73 in (1986)
Month to date precipitation 2.18 1.60  
Year to date precipitation 10.71  
Sea Level Pressure  
Sea Level Pressure 29.68 in    
Wind  
Wind Speed 11 mph (North)    
Max Wind Speed 29 mph    
Max Gust Speed 35 mph    
Visibility 10 miles    
Events Thunderstorm    
T = Trace of Precipitation, MM = Missing Value Source: NWS Daily Summary

Daily Weather History Graph

Daily Weather History Graph

Search for Another Location

Airport or City:

Trip Planner

Search our weather history database for the weather conditions in past years. The results will help you decide how hot, cold, wet, or windy it might be!

Date:

Astronomy

Aug. 31, 2014 Rise Set
Actual Time 6:23 AM MDT 7:24 PM MDT
Civil Twilight 5:55 AM MDT 7:51 PM MDT
Nautical Twilight 5:23 AM MDT 8:23 PM MDT
Astronomical Twilight 4:50 AM MDT 8:57 PM MDT
Moon 12:05 PM MDT (8/31) 10:47 PM MDT (8/31)
Length of Visible Light 13h 55m
Length of Day
13h 01m
Waxing Crescent, 32% of the Moon is Illuminated
Aug 31
Waxing Crescent
Sep 2
First Quarter
Sep 8
Full
Sep 15
Last Quarter
Sep 24
New

Hourly Weather History & Observations

Time (MDT) Temp. Dew Point Humidity Pressure Visibility Wind Dir Wind Speed Gust Speed Precip Events Conditions
12:53 AM 73.0 °F 48.0 °F 41% 29.70 in 10.0 mi East 10.4 mph - N/A   Clear
1:53 AM 69.1 °F 51.1 °F 53% 29.69 in 10.0 mi ENE 9.2 mph - N/A   Clear
2:53 AM 66.0 °F 52.0 °F 60% 29.69 in 10.0 mi SSW 4.6 mph - N/A   Clear
3:53 AM 60.1 °F 52.0 °F 75% 29.70 in 10.0 mi West 9.2 mph - N/A   Clear
4:53 AM 60.1 °F 52.0 °F 75% 29.68 in 10.0 mi NW 5.8 mph - N/A   Clear
5:53 AM 60.1 °F 52.0 °F 75% 29.68 in 10.0 mi Calm Calm - N/A   Clear
6:53 AM 61.0 °F 50.0 °F 67% 29.70 in 10.0 mi West 4.6 mph - N/A   Clear
7:53 AM 57.9 °F 51.1 °F 78% 29.72 in 10.0 mi WNW 8.1 mph - N/A   Clear
8:53 AM 71.1 °F 50.0 °F 47% 29.69 in 10.0 mi SW 6.9 mph - N/A   Clear
9:53 AM 77.0 °F 48.0 °F 36% 29.68 in 10.0 mi SW 10.4 mph - N/A   Clear
10:53 AM 84.0 °F 48.0 °F 28% 29.65 in 10.0 mi WSW 8.1 mph - N/A   Clear
11:53 AM 91.0 °F 46.0 °F 21% 29.62 in 10.0 mi SW 5.8 mph - N/A   Clear
12:53 PM 97.0 °F 39.9 °F 14% 29.57 in 10.0 mi NNW 12.7 mph 27.6 mph N/A   Clear
1:22 PM 98.1 °F 36.0 °F 11% 29.79 in 10.0 mi WSW 23.0 mph 29.9 mph N/A   Clear
1:53 PM 99.0 °F 34.0 °F 10% 29.57 in 10.0 mi West 18.4 mph 28.8 mph N/A   Clear
2:53 PM 99.0 °F 35.1 °F 11% 29.55 in 10.0 mi West 16.1 mph - N/A   Clear
3:53 PM 90.0 °F 48.9 °F 24% 29.58 in 10.0 mi NE 23.0 mph 31.1 mph N/A   Clear
4:53 PM 86.0 °F 50.0 °F 29% 29.60 in 10.0 mi NE 21.9 mph 27.6 mph N/A   Clear
5:53 PM 81.0 °F 51.1 °F 35% 29.63 in 10.0 mi ENE 21.9 mph 31.1 mph N/A   Clear
6:38 PM 80.1 °F 51.1 °F 36% 29.83 in 10.0 mi ENE 16.1 mph - N/A Thunderstorm Clear
6:53 PM 77.0 °F 50.0 °F 39% 29.65 in 10.0 mi ENE 18.4 mph - N/A   Clear
7:53 PM 72.0 °F 51.1 °F 48% 29.71 in 10.0 mi ENE 13.8 mph - N/A   Clear
8:53 PM 66.9 °F 53.1 °F 61% 29.72 in 10.0 mi East 6.9 mph - N/A   Clear
9:53 PM 64.9 °F 51.1 °F 61% 29.73 in 10.0 mi ENE 6.9 mph - N/A   Clear
10:53 PM 64.0 °F 51.1 °F 63% 29.75 in 10.0 mi NE 8.1 mph - N/A   Clear
11:53 PM 62.1 °F 50.0 °F 65% 29.75 in 10.0 mi NNE 4.6 mph - N/A   Clear